Location: Holyhead Bay
(53.3667°N, 4.6667°W)
Time: 22:07:33
(UTC+00:00)

Cosmos 1408 Rocket - Pass Details

Date: 21 April 2021
Orbit: 601 x 631 km, 82.6° (Epoch: 16 May)

Event Time Altitude Azimuth Distance (km) Brightness Sun altitude
Rises 22:47:50 0° 341° (NNW) 2,868 8.5 -21.7°
Reaches altitude 10° 22:50:16 10° 330° (NNW) 1,961 7.3 -21.9°
Maximum altitude 22:53:58 28° 271° (W) 1,143 5.1 -22.1°
Enters shadow 22:55:30 23° 237° (WSW) 1,318 5.1 -22.2°
